When you browse on this site, cookies collect data to enhance your experience and personalize the content and advertising you see.
Visit our Privacy Policy to learn more. By continuing to use the site, you agree to this use of cookies and data.

Stündliche Wetter Puerto Ayacucho

Heute, 11 Juli, Samstag

Zeit Temperatur Niederschläge Wind Luftdruck Luftfeuchtigkeit
00:00 +26°C° 0.5 mm 1 m/S 751 mmHg 91%
01:00 +26°C° 0.5 mm 1 m/S 751 mmHg 92%
02:00 +26°C° 3 mm 1 m/S 751 mmHg 93%
03:00 +25°C° 3 mm 1 m/S 751 mmHg 95%
04:00 +25°C° 3 mm 1 m/S 751 mmHg 96%
05:00 +25°C° 1.3 mm 1 m/S 751 mmHg 96%
06:00 +25°C° 1.3 mm 2 m/S 752 mmHg 96%
07:00 +25°C° 1.3 mm 2 m/S 752 mmHg 96%
08:00 +26°C° 0.3 mm 2 m/S 752 mmHg 94%
09:00 +27°C° 0.3 mm 2 m/S 753 mmHg 91%
10:00 +28°C° 0.3 mm 2 m/S 753 mmHg 88%
11:00 +28°C° 0.3 mm 2 m/S 752 mmHg 87%
12:00 +28°C° 0.3 mm 3 m/S 752 mmHg 87%
13:00 +28°C° 0.3 mm 3 m/S 751 mmHg 86%
14:00 +28°C° 0 mm 3 m/S 751 mmHg 86%
15:00 +28°C° 0 mm 2 m/S 750 mmHg 85%
16:00 +28°C° 0 mm 2 m/S 749 mmHg 85%
17:00 +27°C° 0 mm 2 m/S 750 mmHg 87%
18:00 +27°C° 0 mm 1 m/S 750 mmHg 89%
19:00 +26°C° 0 mm 1 m/S 751 mmHg 90%
20:00 +26°C° 0 mm 1 m/S 751 mmHg 91%
21:00 +26°C° 0 mm 1 m/S 752 mmHg 91%
22:00 +26°C° 0 mm 1 m/S 752 mmHg 91%
23:00 +26°C° 0 mm 1 m/S 752 mmHg 90%

Morgen, 12 Juli, Sonntag

Zeit Temperatur Niederschläge Wind Luftdruck Luftfeuchtigkeit
00:00 +26°C° 0 mm 1 m/S 752 mmHg 89%
01:00 +24°C° 0 mm 0 m/S 751 mmHg 88%
02:00 +25°C° 0.2 mm 1 m/S 751 mmHg 88%
03:00 +25°C° 0.2 mm 1 m/S 752 mmHg 89%
04:00 +25°C° 0.2 mm 1 m/S 752 mmHg 90%
05:00 +25°C° 0.2 mm 1 m/S 752 mmHg 92%
06:00 +25°C° 0.2 mm 1 m/S 752 mmHg 93%
07:00 +24°C° 0.2 mm 1 m/S 753 mmHg 94%
08:00 +25°C° 0.1 mm 1 m/S 753 mmHg 91%
09:00 +26°C° 0.1 mm 1 m/S 753 mmHg 88%
10:00 +25°C° 0.1 mm 0 m/S 753 mmHg 85%
11:00 +26°C° 0 mm 0 m/S 752 mmHg 80%
12:00 +29°C° 0 mm 1 m/S 752 mmHg 74%
13:00 +31°C° 0 mm 1 m/S 751 mmHg 68%
14:00 +31°C° 0 mm 1 m/S 750 mmHg 68%
15:00 +31°C° 0 mm 1 m/S 750 mmHg 69%
16:00 +31°C° 0 mm 2 m/S 749 mmHg 70%
17:00 +30°C° 0.5 mm 2 m/S 750 mmHg 75%
18:00 +28°C° 0.5 mm 1 m/S 750 mmHg 80%
19:00 +27°C° 0.5 mm 1 m/S 751 mmHg 85%
20:00 +27°C° 1.4 mm 1 m/S 751 mmHg 87%
21:00 +27°C° 1.4 mm 2 m/S 752 mmHg 89%
22:00 +26°C° 1.4 mm 2 m/S 752 mmHg 91%
23:00 +26°C° 1.2 mm 1 m/S 752 mmHg 92%

übermorgen, 13 Juli, Montag

Zeit Temperatur Niederschläge Wind Luftdruck Luftfeuchtigkeit
00:00 +26°C° 1.2 mm 1 m/S 752 mmHg 92%
01:00 +26°C° 1.2 mm 1 m/S 751 mmHg 93%
02:00 +26°C° 1.7 mm 1 m/S 751 mmHg 94%
03:00 +25°C° 1.7 mm 1 m/S 751 mmHg 94%
04:00 +25°C° 1.7 mm 1 m/S 751 mmHg 95%
05:00 +25°C° 1.4 mm 1 m/S 752 mmHg 95%
06:00 +25°C° 1.4 mm 1 m/S 752 mmHg 95%
07:00 +25°C° 1.4 mm 1 m/S 753 mmHg 96%
08:00 +25°C° 0.7 mm 1 m/S 753 mmHg 95%
09:00 +26°C° 0.7 mm 1 m/S 753 mmHg 94%
10:00 +26°C° 0.7 mm 1 m/S 753 mmHg 94%
11:00 +27°C° 0.1 mm 1 m/S 753 mmHg 89%
12:00 +28°C° 0.1 mm 2 m/S 752 mmHg 85%
13:00 +29°C° 0.1 mm 2 m/S 752 mmHg 81%
14:00 +29°C° 0.4 mm 2 m/S 751 mmHg 81%
15:00 +29°C° 0.4 mm 2 m/S 751 mmHg 81%
16:00 +29°C° 0.4 mm 2 m/S 750 mmHg 81%
17:00 +28°C° 0.5 mm 2 m/S 751 mmHg 84%
18:00 +27°C° 0.5 mm 1 m/S 751 mmHg 86%
19:00 +27°C° 0.5 mm 1 m/S 752 mmHg 89%
20:00 +26°C° 1 mm 1 m/S 752 mmHg 91%
21:00 +26°C° 1 mm 2 m/S 753 mmHg 92%
22:00 +26°C° 1 mm 2 m/S 753 mmHg 93%
23:00 +25°C° 1 mm 2 m/S 753 mmHg 94%

14 Juli, Dienstag

Zeit Temperatur Niederschläge Wind Luftdruck Luftfeuchtigkeit
00:00 +25°C° 1 mm 3 m/S 752 mmHg 95%
01:00 +25°C° 1 mm 3 m/S 752 mmHg 95%
02:00 +25°C° 0.1 mm 2 m/S 752 mmHg 96%
03:00 +25°C° 0.1 mm 2 m/S 752 mmHg 96%
04:00 +24°C° 0.1 mm 2 m/S 752 mmHg 96%
05:00 +25°C° 0.7 mm 2 m/S 752 mmHg 96%
06:00 +25°C° 0.6 mm 3 m/S 753 mmHg 96%
07:00 +25°C° 0.6 mm 3 m/S 753 mmHg 95%
08:00 +25°C° 0.3 mm 3 m/S 754 mmHg 94%
09:00 +26°C° 0.3 mm 3 m/S 754 mmHg 94%
10:00 +26°C° 0.3 mm 3 m/S 754 mmHg 93%
11:00 +26°C° 0.7 mm 2 m/S 754 mmHg 94%
12:00 +25°C° 0.7 mm 2 m/S 753 mmHg 94%
13:00 +25°C° 0.7 mm 1 m/S 752 mmHg 95%
14:00 +25°C° 0 mm 1 m/S 752 mmHg 94%
15:00 +26°C° 0 mm 1 m/S 751 mmHg 93%
16:00 +26°C° 0 mm 1 m/S 751 mmHg 92%
17:00 +26°C° 0 mm 1 m/S 751 mmHg 92%
18:00 +25°C° 0 mm 1 m/S 752 mmHg 93%
19:00 +25°C° 0 mm 1 m/S 752 mmHg 94%
20:00 +25°C° 0 mm 1 m/S 753 mmHg 94%
21:00 +25°C° 0 mm 1 m/S 753 mmHg 94%
22:00 +25°C° 0 mm 1 m/S 753 mmHg 94%
23:00 +22°C° 0 mm 0 m/S 753 mmHg 95%

15 Juli, Mittwoch

Zeit Temperatur Niederschläge Wind Luftdruck Luftfeuchtigkeit
00:00 +22°C° 0 mm 0 m/S 752 mmHg 95%
01:00 +22°C° 0 mm 0 m/S 752 mmHg 96%
02:00 +22°C° 0 mm 0 m/S 752 mmHg 96%
03:00 +22°C° 0 mm 0 m/S 752 mmHg 95%
04:00 +24°C° 0 mm 1 m/S 752 mmHg 95%
05:00 +24°C° 0 mm 1 m/S 752 mmHg 94%
06:00 +25°C° 0 mm 1 m/S 753 mmHg 92%
07:00 +25°C° 0 mm 1 m/S 753 mmHg 91%
08:00 +27°C° 0 mm 1 m/S 753 mmHg 84%
09:00 +29°C° 0 mm 1 m/S 753 mmHg 78%
10:00 +30°C° 0 mm 1 m/S 753 mmHg 71%
11:00 +31°C° 1.2 mm 1 m/S 753 mmHg 71%
12:00 +31°C° 1.2 mm 1 m/S 752 mmHg 71%
13:00 +31°C° 1.2 mm 1 m/S 751 mmHg 71%
14:00 +31°C° 1.4 mm 1 m/S 750 mmHg 73%
15:00 +31°C° 1.4 mm 1 m/S 750 mmHg 75%
16:00 +30°C° 1.4 mm 1 m/S 750 mmHg 77%
17:00 +29°C° 0.7 mm 1 m/S 750 mmHg 80%
18:00 +28°C° 0.7 mm 1 m/S 750 mmHg 83%
19:00 +25°C° 0.7 mm 0 m/S 751 mmHg 86%
20:00 +25°C° 0.1 mm 0 m/S 751 mmHg 87%
21:00 +25°C° 0.1 mm 0 m/S 752 mmHg 88%
22:00 +25°C° 0.1 mm 0 m/S 752 mmHg 88%
23:00 +24°C° 0 mm 0 m/S 752 mmHg 89%

16 Juli, Donnerstag

Zeit Temperatur Niederschläge Wind Luftdruck Luftfeuchtigkeit
00:00 +24°C° 0 mm 0 m/S 752 mmHg 90%
01:00 +24°C° 0 mm 0 m/S 751 mmHg 91%
02:00 +23°C° 0.8 mm 0 m/S 751 mmHg 92%
03:00 +23°C° 0.8 mm 0 m/S 751 mmHg 93%
04:00 +23°C° 0.8 mm 0 m/S 751 mmHg 94%
05:00 +23°C° 0.5 mm 0 m/S 752 mmHg 93%
06:00 +25°C° 0.5 mm 1 m/S 752 mmHg 91%
07:00 +26°C° 0.5 mm 1 m/S 753 mmHg 90%
08:00 +26°C° 0.5 mm 1 m/S 753 mmHg 90%
09:00 +26°C° 0.5 mm 2 m/S 753 mmHg 90%
10:00 +26°C° 0.5 mm 2 m/S 753 mmHg 90%
11:00 +28°C° 0.1 mm 2 m/S 752 mmHg 82%
12:00 +30°C° 0.1 mm 2 m/S 752 mmHg 74%
13:00 +31°C° 0.1 mm 1 m/S 751 mmHg 66%
14:00 +31°C° 0.1 mm 1 m/S 751 mmHg 66%
15:00 +31°C° 0.1 mm 1 m/S 750 mmHg 66%
16:00 +31°C° 0.1 mm 1 m/S 750 mmHg 66%
17:00 +30°C° 0.3 mm 1 m/S 750 mmHg 72%
18:00 +29°C° 0.3 mm 1 m/S 751 mmHg 77%
19:00 +27°C° 0.3 mm 1 m/S 751 mmHg 82%
20:00 +27°C° 0.9 mm 1 m/S 752 mmHg 84%
21:00 +26°C° 0.9 mm 1 m/S 752 mmHg 87%
22:00 +26°C° 0.9 mm 1 m/S 752 mmHg 90%
23:00 +25°C° 0.8 mm 2 m/S 752 mmHg 91%
Mehr zeigen